Location: Chapel Hill
(35.9134°N, 79.0560°W)
Time: 02:00:24
(UTC-05:00)

Envisat - Visible Passes

Search period start: 23 February 2024 00:00
Search period end: 04 March 2024 00:00
Orbit: 762 x 764 km, 98.3° (Epoch: 22 February)

Date Brightness Start Highest point End Pass type
(mag) Time Alt. Az. Time Alt. Az. Time Alt. Az.
29 Feb 5.4 04:24:19 10° N 04:24:32 11° N 04:24:32 11° N visible
01 Mar 5.6 03:46:39 10° N 03:46:57 12° N 03:46:57 12° N visible
02 Mar 5.3 04:49:25 10° NNW 04:49:32 10° NNW 04:49:32 10° NNW visible
03 Mar 5.3 04:11:13 10° N 04:11:56 14° N 04:11:56 14° N visible
